{"data":{"norad_id":66873,"epoch":"2026-09-20T04:43:03.379296Z","epoch_age_seconds":110036,"freshness":"FRESH","line1":"1 66873U 25281AB  26263.19656689  .00008486  00000+0  31744-3 0  9994","line2":"2 66873  43.0021 324.9258 0002551 283.3256  76.7312 15.27590959 45879","mean_motion":15.27590959,"eccentricity":0.0002551,"inclination_deg":43.0021,"raan_deg":324.9258,"arg_perigee_deg":283.3256,"mean_anomaly_deg":76.7312,"bstar":0.00031744,"rev_number":4587,"period_min":94.266072440142,"perigee_km":481.26600084536,"apogee_km":484.76656124935,"semimajor_km":6861.1532810474,"source":"CELESTRAK","updated_at":"2026-09-21T09:00:36.030927Z"}}